This is the latest recevied weather packets stored in our database for station/object R2AJV-13. If no packets are shown the sender has not sent any weather packets the latest 10 day(s).
| Time | Temp. | Humidity | Pressure | Rain* | Wind** | Luminosity | Snow |
|---|---|---|---|---|---|---|---|
| 1788665438 | 10° C | 99% | 986.9 hPa | 0 mm | - | - | - |
| 1788664529 | 9.44° C | 99% | 986.9 hPa | 0 mm | - | - | - |
| 1788663616 | 9.44° C | 99% | 986.7 hPa | 0 mm | - | - | - |
| 1788662766 | 9.44° C | 99% | 986.6 hPa | 0 mm | - | - | - |
| 1788661861 | 9.44° C | 99% | 986.4 hPa | 0 mm | - | - | - |
| 1788660951 | 9.44° C | 99% | 986.3 hPa | 0 mm | - | - | - |
| 1788660040 | 8.89° C | 99% | 986.5 hPa | 0 mm | - | - | - |
| 1788659129 | 8.89° C | 99% | 986.4 hPa | 0 mm | - | - | - |
| 1788658218 | 8.33° C | 99% | 986.4 hPa | 0 mm | - | - | - |
| 1788657374 | 8.33° C | 99% | 986.3 hPa | 0 mm | - | - | - |
| 1788655526 | 7.78° C | 99% | 986.1 hPa | 0 mm | - | - | - |
| 1788654675 | 7.78° C | 99% | 986.1 hPa | 0 mm | - | - | - |
| 1788653764 | 7.78° C | 99% | 985.9 hPa | 0 mm | - | - | - |
| 1788652884 | 7.78° C | 99% | 986 hPa | 0 mm | - | - | - |
| 1788651043 | 8.33° C | 99% | 985.8 hPa | 0 mm | - | - | - |
| 1788650127 | 8.33° C | 99% | 985.9 hPa | 0 mm | - | - | - |
| 1788649217 | 8.89° C | 99% | 985.8 hPa | 0 mm | - | - | - |
| 1788648367 | 8.89° C | 99% | 985.8 hPa | 0 mm | - | - | - |
| 1788647461 | 9.44° C | 99% | 985.6 hPa | 0 mm | - | - | - |
| 1788646551 | 9.44° C | 99% | 985.6 hPa | 0 mm | - | - | - |
| 1788645639 | 9.44° C | 99% | 985.7 hPa | 0 mm | - | - | - |
| 1788644730 | 9.44° C | 99% | 985.5 hPa | 0 mm | - | - | - |
| 1788643819 | 10° C | 99% | 985.4 hPa | 0 mm | - | - | - |
| 1788642974 | 10° C | 99% | 985.3 hPa | 0 mm | - | - | - |
| 1788642031 | 10.56° C | 99% | 985.3 hPa | 0 mm | - | - | - |
* Rain latest hour (hover to see other rain measurements)
** Current wind speed in m/s (hover to see current wind gust speed)